Time,TemperatureF,DewpointF,PressureIn,WindDirection,WindDirectionDegrees,WindSpeedMPH,WindSpeedGustMPH,Humidity,HourlyPrecipIn,Conditions,Clouds,dailyrainin,SoftwareType,DateUTC
2013-04-01 00:02:00,25.0,15.0,30.22,SE,142,0.0,-999.0,64,-99.99,,,-99.99,,2013-04-01 06:02:00,
2013-04-01 00:12:00,25.0,15.0,30.22,SE,142,0.0,-999.0,64,-99.99,,,-99.99,,2013-04-01 06:12:00,
2013-04-01 00:22:00,24.0,13.0,30.21,SE,142,0.0,-999.0,63,-99.99,,,-99.99,,2013-04-01 06:22:00,
2013-04-01 00:33:00,23.0,12.0,30.22,SE,142,0.0,-999.0,61,-99.99,,,-99.99,,2013-04-01 06:33:00,
2013-04-01 00:43:00,23.0,12.0,30.22,SE,142,0.0,-999.0,61,-99.99,,,-99.99,,2013-04-01 06:43:00,
2013-04-01 00:52:00,23.0,12.0,30.22,SE,142,0.0,-999.0,63,-99.99,,,-99.99,,2013-04-01 06:52:00,
2013-04-01 01:02:00,22.0,11.0,30.21,SE,142,0.0,-999.0,62,-99.99,,,-99.99,,2013-04-01 07:02:00,
2013-04-01 01:12:00,22.0,11.0,30.21,SE,142,0.0,-999.0,62,-99.99,,,-99.99,,2013-04-01 07:12:00,
2013-04-01 01:22:00,22.0,11.0,30.21,SE,142,1.0,-999.0,63,-99.99,,,-99.99,,2013-04-01 07:22:00,
2013-04-01 01:32:00,22.0,12.0,30.21,SE,142,0.0,-999.0,66,-99.99,,,-99.99,,2013-04-01 07:32:00,
2013-04-01 01:42:00,22.0,12.0,30.21,SE,142,0.0,-999.0,66,-99.99,,,-99.99,,2013-04-01 07:42:00,
2013-04-01 01:52:00,22.0,12.0,30.21,SE,142,0.0,-999.0,65,-99.99,,,-99.99,,2013-04-01 07:52:00,
2013-04-01 02:02:00,22.0,12.0,30.21,SE,142,0.0,-999.0,66,-99.99,,,-99.99,,2013-04-01 08:02:00,
2013-04-01 02:12:00,22.0,12.0,30.21,SE,142,0.0,-999.0,66,-99.99,,,-99.99,,2013-04-01 08:12:00,
2013-04-01 02:22:00,21.0,12.0,30.21,SE,142,0.0,-999.0,68,-99.99,,,-99.99,,2013-04-01 08:22:00,
2013-04-01 02:32:00,21.0,12.0,30.21,SE,142,0.0,-999.0,67,-99.99,,,-99.99,,2013-04-01 08:32:00,
2013-04-01 02:43:00,21.0,12.0,30.21,SE,142,0.0,-999.0,67,-99.99,,,-99.99,,2013-04-01 08:43:00,
2013-04-01 02:52:00,21.0,12.0,30.20,SE,142,0.0,-999.0,67,-99.99,,,-99.99,,2013-04-01 08:52:00,
2013-04-01 03:02:00,20.0,11.0,30.20,SE,142,0.0,-999.0,69,-99.99,,,-99.99,,2013-04-01 09:02:00,
2013-04-01 03:12:00,20.0,11.0,30.20,SE,142,0.0,-999.0,69,-99.99,,,-99.99,,2013-04-01 09:12:00,
2013-04-01 03:22:00,20.0,11.0,30.20,SE,142,0.0,-999.0,69,-99.99,,,-99.99,,2013-04-01 09:22:00,
2013-04-01 03:33:00,19.0,11.0,30.19,SE,142,0.0,-999.0,69,-99.99,,,-99.99,,2013-04-01 09:33:00,
2013-04-01 03:42:00,19.0,11.0,30.19,SE,142,0.0,-999.0,69,-99.99,,,-99.99,,2013-04-01 09:42:00,
2013-04-01 03:53:00,19.0,11.0,30.19,SE,142,0.0,-999.0,69,-99.99,,,-99.99,,2013-04-01 09:53:00,
2013-04-01 04:03:00,18.0,10.0,30.19,SE,142,0.0,-999.0,70,-99.99,,,-99.99,,2013-04-01 10:03:00,
2013-04-01 04:12:00,18.0,10.0,30.19,SE,142,0.0,-999.0,70,-99.99,,,-99.99,,2013-04-01 10:12:00,
2013-04-01 04:23:00,18.0,11.0,30.19,SE,142,0.0,-999.0,72,-99.99,,,-99.99,,2013-04-01 10:23:00,
2013-04-01 04:33:00,18.0,11.0,30.19,SE,142,0.0,-999.0,72,-99.99,,,-99.99,,2013-04-01 10:33:00,
2013-04-01 04:42:00,18.0,11.0,30.19,SE,142,0.0,-999.0,72,-99.99,,,-99.99,,2013-04-01 10:42:00,
2013-04-01 04:53:00,17.0,10.0,30.19,SE,142,0.0,-999.0,73,-99.99,,,-99.99,,2013-04-01 10:53:00,
2013-04-01 05:03:00,17.0,10.0,30.19,SE,142,0.0,-999.0,73,-99.99,,,-99.99,,2013-04-01 11:03:00,
2013-04-01 05:13:00,17.0,10.0,30.19,SE,142,0.0,-999.0,73,-99.99,,,-99.99,,2013-04-01 11:13:00,
2013-04-01 05:23:00,17.0,10.0,30.18,SE,142,0.0,-999.0,74,-99.99,,,-99.99,,2013-04-01 11:23:00,
2013-04-01 05:33:00,17.0,10.0,30.19,SE,142,0.0,-999.0,75,-99.99,,,-99.99,,2013-04-01 11:33:00,
2013-04-01 05:42:00,17.0,10.0,30.19,SE,142,0.0,-999.0,75,-99.99,,,-99.99,,2013-04-01 11:42:00,
2013-04-01 05:52:00,16.0,9.0,30.18,SE,142,0.0,-999.0,75,-99.99,,,-99.99,,2013-04-01 11:52:00,
2013-04-01 06:02:00,16.0,9.0,30.19,SE,142,0.0,-999.0,75,-99.99,,,-99.99,,2013-04-01 12:02:00,
2013-04-01 06:12:00,16.0,9.0,30.19,SE,142,0.0,-999.0,75,-99.99,,,-99.99,,2013-04-01 12:12:00,
2013-04-01 06:22:00,16.0,9.0,30.19,SE,142,0.0,-999.0,75,-99.99,,,-99.99,,2013-04-01 12:22:00,
2013-04-01 06:32:00,16.0,10.0,30.19,SE,142,0.0,-999.0,76,-99.99,,,-99.99,,2013-04-01 12:32:00,
2013-04-01 06:42:00,16.0,10.0,30.19,SE,142,0.0,-999.0,76,-99.99,,,-99.99,,2013-04-01 12:42:00,
2013-04-01 06:52:00,16.0,10.0,30.19,SE,142,0.0,-999.0,76,-99.99,,,-99.99,,2013-04-01 12:52:00,
2013-04-01 07:02:00,16.0,9.0,30.19,SE,142,0.0,-999.0,75,-99.99,,,-99.99,,2013-04-01 13:02:00,
2013-04-01 07:12:00,16.0,9.0,30.19,SE,142,0.0,-999.0,75,-99.99,,,-99.99,,2013-04-01 13:12:00,
2013-04-01 07:22:00,16.0,9.0,30.19,SE,142,0.0,-999.0,75,-99.99,,,-99.99,,2013-04-01 13:22:00,
2013-04-01 07:32:00,17.0,10.0,30.19,SE,142,0.0,-999.0,75,-99.99,,,-99.99,,2013-04-01 13:32:00,
2013-04-01 07:43:00,17.0,10.0,30.19,SE,142,0.0,-999.0,75,-99.99,,,-99.99,,2013-04-01 13:43:00,
2013-04-01 07:52:00,17.0,11.0,30.19,SE,142,0.0,-999.0,76,-99.99,,,-99.99,,2013-04-01 13:52:00,
2013-04-01 08:03:00,18.0,12.0,30.19,SE,142,0.0,-999.0,78,-99.99,,,-99.99,,2013-04-01 14:03:00,
2013-04-01 08:12:00,18.0,12.0,30.19,SE,142,0.0,-999.0,78,-99.99,,,-99.99,,2013-04-01 14:12:00,
2013-04-01 08:22:00,18.0,12.0,30.19,SE,142,0.0,-999.0,78,-99.99,,,-99.99,,2013-04-01 14:22:00,
2013-04-01 08:33:00,21.0,13.0,30.19,SE,142,0.0,-999.0,72,-99.99,,,-99.99,,2013-04-01 14:33:00,
2013-04-01 08:43:00,21.0,13.0,30.19,SE,142,0.0,-999.0,72,-99.99,,,-99.99,,2013-04-01 14:43:00,
2013-04-01 08:53:00,23.0,15.0,30.20,SE,142,0.0,-999.0,70,-99.99,,,-99.99,,2013-04-01 14:53:00,
2013-04-01 09:03:00,25.0,15.0,30.19,SE,142,0.0,-999.0,66,-99.99,,,-99.99,,2013-04-01 15:03:00,
2013-04-01 09:13:00,25.0,15.0,30.19,SE,142,0.0,-999.0,66,-99.99,,,-99.99,,2013-04-01 15:13:00,
2013-04-01 09:22:00,26.0,15.0,30.19,SE,142,0.0,-999.0,62,-99.99,,,-99.99,,2013-04-01 15:22:00,
2013-04-01 09:34:00,27.0,15.0,30.19,NW,310,0.0,-999.0,60,-99.99,,,-99.99,,2013-04-01 15:34:00,
2013-04-01 09:43:00,27.0,15.0,30.19,NW,310,0.0,-999.0,60,-99.99,,,-99.99,,2013-04-01 15:43:00,
2013-04-01 09:53:00,27.0,16.0,30.18,NW,309,0.0,-999.0,64,-99.99,,,-99.99,,2013-04-01 15:53:00,
2013-04-01 10:03:00,28.0,17.0,30.18,WNW,298,1.0,-999.0,62,-99.99,,,-99.99,,2013-04-01 16:03:00,
2013-04-01 10:13:00,28.0,17.0,30.18,WNW,298,1.0,-999.0,62,-99.99,,,-99.99,,2013-04-01 16:13:00,
2013-04-01 10:23:00,28.0,16.0,30.17,SSW,205,0.0,-999.0,60,-99.99,,,-99.99,,2013-04-01 16:23:00,
2013-04-01 10:33:00,30.0,17.0,30.16,NNW,329,1.0,-999.0,58,-99.99,,,-99.99,,2013-04-01 16:33:00,
2013-04-01 10:42:00,30.0,17.0,30.16,NNW,329,1.0,-999.0,58,-99.99,,,-99.99,,2013-04-01 16:42:00,
2013-04-01 10:52:00,31.0,18.0,30.16,WNW,298,1.0,-999.0,59,-99.99,,,-99.99,,2013-04-01 16:52:00,
2013-04-01 11:03:00,33.0,19.0,30.15,WSW,242,1.0,-999.0,56,-99.99,,,-99.99,,2013-04-01 17:03:00,
2013-04-01 11:12:00,33.0,19.0,30.15,WSW,242,1.0,-999.0,56,-99.99,,,-99.99,,2013-04-01 17:12:00,
2013-04-01 11:22:00,35.0,20.0,30.14,West,274,1.0,-999.0,54,-99.99,,,-99.99,,2013-04-01 17:22:00,
2013-04-01 11:32:00,35.0,20.0,30.14,West,274,1.0,-999.0,54,-99.99,,,-99.99,,2013-04-01 17:32:00,
2013-04-01 11:42:00,35.0,20.0,30.14,West,274,1.0,-999.0,54,-99.99,,,-99.99,,2013-04-01 17:42:00,
2013-04-01 11:52:00,37.0,20.0,30.13,WSW,247,1.0,-999.0,50,-99.99,,,-99.99,,2013-04-01 17:52:00,
2013-04-01 12:03:00,37.0,21.0,30.12,NW,322,1.0,-999.0,51,-99.99,,,-99.99,,2013-04-01 18:03:00,
2013-04-01 12:12:00,37.0,21.0,30.12,NW,322,1.0,-999.0,51,-99.99,,,-99.99,,2013-04-01 18:12:00,
2013-04-01 12:22:00,38.0,18.0,30.11,ESE,118,2.0,-999.0,43,-99.99,,,-99.99,,2013-04-01 18:22:00,
2013-04-01 12:32:00,40.0,18.0,30.11,South,180,2.0,-999.0,40,-99.99,,,-99.99,,2013-04-01 18:32:00,
2013-04-01 12:42:00,40.0,18.0,30.11,South,180,2.0,-999.0,40,-99.99,,,-99.99,,2013-04-01 18:42:00,
2013-04-01 12:52:00,41.0,17.0,30.09,NE,55,2.0,-999.0,37,-99.99,,,-99.99,,2013-04-01 18:52:00,
2013-04-01 13:03:00,41.0,17.0,30.09,East,86,1.0,-999.0,38,-99.99,,,-99.99,,2013-04-01 19:03:00,
2013-04-01 13:12:00,41.0,17.0,30.09,East,86,1.0,-999.0,38,-99.99,,,-99.99,,2013-04-01 19:12:00,
2013-04-01 13:23:00,41.0,17.0,30.08,SSW,200,1.0,-999.0,38,-99.99,,,-99.99,,2013-04-01 19:23:00,
2013-04-01 13:32:00,41.0,17.0,30.08,East,94,2.0,-999.0,37,-99.99,,,-99.99,,2013-04-01 19:32:00,
2013-04-01 13:42:00,41.0,17.0,30.08,East,94,2.0,-999.0,37,-99.99,,,-99.99,,2013-04-01 19:42:00,
2013-04-01 13:53:00,42.0,16.0,30.07,East,82,1.0,-999.0,35,-99.99,,,-99.99,,2013-04-01 19:53:00,
2013-04-01 14:02:00,42.0,19.0,30.06,SSW,196,1.0,-999.0,39,-99.99,,,-99.99,,2013-04-01 20:02:00,
2013-04-01 14:12:00,42.0,19.0,30.06,SSW,196,1.0,-999.0,39,-99.99,,,-99.99,,2013-04-01 20:12:00,
2013-04-01 14:22:00,42.0,19.0,30.06,SSW,196,1.0,-999.0,39,-99.99,,,-99.99,,2013-04-01 20:22:00,
2013-04-01 14:32:00,41.0,24.0,30.07,North,360,3.0,-999.0,50,-99.99,,,-99.99,,2013-04-01 20:32:00,
2013-04-01 14:43:00,41.0,24.0,30.07,North,360,3.0,-999.0,50,-99.99,,,-99.99,,2013-04-01 20:43:00,
2013-04-01 14:52:00,42.0,21.0,30.05,North,355,2.0,-999.0,42,-99.99,,,-99.99,,2013-04-01 20:52:00,
2013-04-01 15:02:00,43.0,18.0,30.04,NE,49,2.0,-999.0,36,-99.99,,,-99.99,,2013-04-01 21:02:00,
2013-04-01 15:12:00,43.0,18.0,30.04,NE,49,2.0,-999.0,36,-99.99,,,-99.99,,2013-04-01 21:12:00,
2013-04-01 15:22:00,45.0,18.0,30.03,North,5,3.0,-999.0,33,-99.99,,,-99.99,,2013-04-01 21:22:00,
2013-04-01 15:32:00,44.0,18.0,30.03,East,80,3.0,-999.0,35,-99.99,,,-99.99,,2013-04-01 21:32:00,
2013-04-01 15:43:00,44.0,18.0,30.03,East,80,3.0,-999.0,35,-99.99,,,-99.99,,2013-04-01 21:43:00,
2013-04-01 15:52:00,44.0,17.0,30.03,SSW,201,2.0,-999.0,34,-99.99,,,-99.99,,2013-04-01 21:52:00,
2013-04-01 16:02:00,43.0,16.0,30.03,NNE,23,1.0,-999.0,33,-99.99,,,-99.99,,2013-04-01 22:02:00,
2013-04-01 16:12:00,43.0,16.0,30.03,NNE,23,1.0,-999.0,33,-99.99,,,-99.99,,2013-04-01 22:12:00,
2013-04-01 16:22:00,43.0,16.0,30.02,ESE,118,1.0,-999.0,33,-99.99,,,-99.99,,2013-04-01 22:22:00,
2013-04-01 16:33:00,42.0,16.0,30.02,NE,34,1.0,-999.0,34,-99.99,,,-99.99,,2013-04-01 22:33:00,
2013-04-01 16:43:00,42.0,16.0,30.02,NE,34,1.0,-999.0,34,-99.99,,,-99.99,,2013-04-01 22:43:00,
2013-04-01 16:52:00,42.0,14.0,30.01,West,279,1.0,-999.0,32,-99.99,,,-99.99,,2013-04-01 22:52:00,
2013-04-01 17:02:00,43.0,15.0,30.01,ENE,65,1.0,-999.0,32,-99.99,,,-99.99,,2013-04-01 23:02:00,
2013-04-01 17:12:00,43.0,15.0,30.01,ENE,65,1.0,-999.0,32,-99.99,,,-99.99,,2013-04-01 23:12:00,
2013-04-01 17:23:00,42.0,14.0,30.03,ENE,71,2.0,-999.0,32,-99.99,,,-99.99,,2013-04-01 23:23:00,
2013-04-01 17:32:00,41.0,18.0,30.03,ESE,108,1.0,-999.0,39,-99.99,,,-99.99,,2013-04-01 23:32:00,
2013-04-01 17:43:00,41.0,18.0,30.03,ESE,108,1.0,-999.0,39,-99.99,,,-99.99,,2013-04-01 23:43:00,
2013-04-01 17:52:00,39.0,20.0,30.03,ENE,57,2.0,-999.0,46,-99.99,,,-99.99,,2013-04-01 23:52:00,
2013-04-01 18:02:00,38.0,19.0,30.03,ESE,121,2.0,-999.0,45,-99.99,,,-99.99,,2013-04-02 00:02:00,
2013-04-01 18:12:00,38.0,19.0,30.03,ESE,121,2.0,-999.0,45,-99.99,,,-99.99,,2013-04-02 00:12:00,
2013-04-01 18:22:00,38.0,19.0,30.03,ESE,117,2.0,-999.0,46,-99.99,,,-99.99,,2013-04-02 00:22:00,
2013-04-01 18:33:00,38.0,20.0,30.03,ESE,117,0.0,-999.0,48,-99.99,,,-99.99,,2013-04-02 00:33:00,
2013-04-01 18:42:00,38.0,20.0,30.03,ESE,117,0.0,-999.0,48,-99.99,,,-99.99,,2013-04-02 00:42:00,
2013-04-01 18:52:00,37.0,20.0,30.03,ESE,117,0.0,-999.0,49,-99.99,,,-99.99,,2013-04-02 00:52:00,
2013-04-01 19:02:00,38.0,18.0,30.03,ENE,67,1.0,-999.0,44,-99.99,,,-99.99,,2013-04-02 01:02:00,
2013-04-01 19:12:00,38.0,18.0,30.03,ENE,67,1.0,-999.0,44,-99.99,,,-99.99,,2013-04-02 01:12:00,
2013-04-01 19:22:00,37.0,21.0,30.05,SSE,155,0.0,-999.0,52,-99.99,,,-99.99,,2013-04-02 01:22:00,
2013-04-01 19:32:00,36.0,24.0,30.04,SE,125,0.0,-999.0,61,-99.99,,,-99.99,,2013-04-02 01:32:00,
2013-04-01 19:42:00,36.0,24.0,30.04,SE,125,0.0,-999.0,61,-99.99,,,-99.99,,2013-04-02 01:42:00,
2013-04-01 19:52:00,34.0,25.0,30.05,NW,317,0.0,-999.0,68,-99.99,,,-99.99,,2013-04-02 01:52:00,
2013-04-01 20:02:00,33.0,25.0,30.06,NNE,30,1.0,-999.0,73,-99.99,,,-99.99,,2013-04-02 02:02:00,
2013-04-01 20:12:00,33.0,25.0,30.06,NNE,30,1.0,-999.0,73,-99.99,,,-99.99,,2013-04-02 02:12:00,
2013-04-01 20:22:00,32.0,26.0,30.07,NNE,30,0.0,-999.0,77,-99.99,,,-99.99,,2013-04-02 02:22:00,
2013-04-01 20:32:00,31.0,26.0,30.06,NNE,20,0.0,-999.0,80,-99.99,,,-99.99,,2013-04-02 02:32:00,
2013-04-01 20:42:00,31.0,26.0,30.06,NNE,20,0.0,-999.0,80,-99.99,,,-99.99,,2013-04-02 02:42:00,
2013-04-01 20:52:00,30.0,25.0,30.07,NNE,20,0.0,-999.0,83,-99.99,,,-99.99,,2013-04-02 02:52:00,
2013-04-01 21:02:00,30.0,26.0,30.08,NNE,20,0.0,-999.0,85,-99.99,,,-99.99,,2013-04-02 03:02:00,
2013-04-01 21:12:00,30.0,26.0,30.08,NNE,20,0.0,-999.0,85,-99.99,,,-99.99,,2013-04-02 03:12:00,
2013-04-01 21:22:00,29.0,26.0,30.08,NNE,20,0.0,-999.0,87,-99.99,,,-99.99,,2013-04-02 03:22:00,
2013-04-01 21:33:00,29.0,26.0,30.09,NNE,20,0.0,-999.0,87,-99.99,,,-99.99,,2013-04-02 03:33:00,
2013-04-01 21:43:00,29.0,26.0,30.09,NNE,20,0.0,-999.0,87,-99.99,,,-99.99,,2013-04-02 03:43:00,
2013-04-01 21:53:00,29.0,26.0,30.09,NNE,20,0.0,-999.0,88,-99.99,,,-99.99,,2013-04-02 03:53:00,
2013-04-01 22:03:00,29.0,26.0,30.09,NNE,20,0.0,-999.0,88,-99.99,,,-99.99,,2013-04-02 04:03:00,
2013-04-01 22:13:00,29.0,26.0,30.09,NNE,20,0.0,-999.0,88,-99.99,,,-99.99,,2013-04-02 04:13:00,
2013-04-01 22:22:00,29.0,26.0,30.09,NNE,20,0.0,-999.0,88,-99.99,,,-99.99,,2013-04-02 04:22:00,
2013-04-01 22:32:00,29.0,26.0,30.09,NNE,20,0.0,-999.0,88,-99.99,,,-99.99,,2013-04-02 04:32:00,
2013-04-01 22:43:00,29.0,26.0,30.09,NNE,20,0.0,-999.0,88,-99.99,,,-99.99,,2013-04-02 04:43:00,
2013-04-01 22:52:00,28.0,24.0,30.09,NNE,20,0.0,-999.0,86,-99.99,,,-99.99,,2013-04-02 04:52:00,
2013-04-01 23:02:00,27.0,24.0,30.08,NNE,20,0.0,-999.0,87,-99.99,,,-99.99,,2013-04-02 05:02:00,
2013-04-01 23:12:00,27.0,24.0,30.08,NNE,20,0.0,-999.0,87,-99.99,,,-99.99,,2013-04-02 05:12:00,
2013-04-01 23:22:00,27.0,24.0,30.08,NNE,20,0.0,-999.0,88,-99.99,,,-99.99,,2013-04-02 05:22:00,
2013-04-01 23:32:00,27.0,24.0,30.08,NNE,20,0.0,-999.0,88,-99.99,,,-99.99,,2013-04-02 05:32:00,
2013-04-01 23:42:00,27.0,24.0,30.08,NNE,20,0.0,-999.0,88,-99.99,,,-99.99,,2013-04-02 05:42:00,
2013-04-01 23:52:00,27.0,24.0,30.08,NNE,20,0.0,-999.0,89,-99.99,,,-99.99,,2013-04-02 05:52:00,